Regional Weather Roundup
Issued by NWS Sioux Falls, SD

Home | Current Version | Previous Version | Graphics & Text | Print | Product List | Glossary On
Versions: 1 2 3 4 5 6 7 8 9 10 11 12 13 14 15 16 17 18 19 20 21 22 23 24 25 26 27 28 29 30 31 32 33 34 35 36 37 38 39 40 41 42 43 44 45 46 47 48 49 50
000
ASUS43 KFSD 220510
RWRFSD

WEATHER ROUNDUP FOR SE SOUTH DAKOTA/SW MINNESOTA/NW IOWA
NATIONAL WEATHER SERVICE SIOUX FALLS SD
1200 AM CDT SAT JUL 22 2017

NOTE: "FAIR" INDICATES FEW OR NO CLOUDS BELOW 12,000 FEET WITH NO
SIGNIFICANT WEATHER AND OR OBSTRUCTIONS TO VISIBILITY.


SDZ038>040-050-052>070-220600-
SOUTHEAST SOUTH DAKOTA

CITY           SKY/WX    TMP DP  RH WIND       PRES   REMARKS
BROOKINGS      PTCLDY    76  72  87 E9        29.81R
CHAMBERLAIN    CLEAR     82  77  86 SW3       29.74F
HURON          CLOUDY    74  67  78 NE10      29.82R THUNDER
MADISON        FAIR      72  72 100 E8        29.80F
MITCHELL       CLEAR     76  74  93 E6        29.75R
SIOUX FALLS    PTCLDY    76  75  97 E7        29.78S
WINNER         FAIR      83  61  47 W10       29.79F
YANKTON        CLOUDY    77  75  93 E7        29.76R
$$

MNZ071-072-080-081-089-090-097-098-220600-
SOUTHWEST MINNESOTA

CITY           SKY/WX    TMP DP  RH WIND       PRES   REMARKS
FAIRMONT       CLOUDY    72  71  97 E5        29.80F
JACKSON        CLOUDY    72  70  94 CALM      29.82F
LUVERNE        CLOUDY    72  70  94 E5        29.81R
MARSHALL       PTCLDY    73  69  87 SE10      29.81F
MONTEVIDEO     CLOUDY    75  70  83 SE13      29.83F
PIPESTONE      CLEAR     73  72  94 SE8       29.81S
REDWOOD FALLS  CLEAR     72  68  87 E5        29.83S
WINDOM         CLEAR     72  68  88 CALM      29.82F
WORTHINGTON    CLOUDY    72  70  94 NE9       29.83R
$$

IAZ001>003-012>014-020>022-031-032-NEZ013-014-SDZ071-220600-
NORTHWEST IOWA

CITY           SKY/WX    TMP DP  RH WIND       PRES   REMARKS
CHEROKEE       CLOUDY    77  76  97 NE8       29.77S
DENISON        CLOUDY    79  79 100 N7        29.75S FOG
ESTHERVILLE    CLOUDY    72  72 100 NE9       29.79F
ORANGE CITY    CLOUDY    75  73  94 E7        29.78S
SHELDON        CLOUDY    73  73 100 NE8       29.78S
SIOUX CITY     CLOUDY    79  78  97 NE5       29.74R
SPENCER        CLOUDY    74  72  93 E9        29.79F
STORM LAKE     CLOUDY    75  75 100 NE12      29.78S FOG
$$

ABBREVIATIONS USED IN REMARKS
   TC - TEMPERATURE IN CELSIUS
  WCI - WIND CHILL INDEX
   HX - HEAT INDEX
  VSB - VISIBILITY




USA.gov is the U.S. government's official web portal to all federal, state and local government web resources and services.